SCP
0 0 0 0 0 0 0 0 0 0 0 0 0 0 0 0 0 0 0 0 0 0 0 0 0 0 0 0 0 0 0 0 0 0 0 0 0 0 0 0 0 0 0
0 0 0 0 0 0 0 0 0 0 0 0 0 0 0 0 0 0 0 0 0 0 0 0 0 0 0 0 0 0 0 0 0 0 0 0 0 0 0 0 0 0 0
0 0 0 0 0 0 0 0 0 0 0 0 0 0 0 0 0 0 0 0 0 0 0 0 0 0 0 0 0 0 0 0 0 0 0 0 0 0 0 0 0 0 0
0 0 0 0 0 0 0 0 0 0 0 0 0 0 0 0 0 0 0 0 0 0 0 0 0 0 0 0 0 0 0 0 0 0 0 0 0 0 0 0 0 0 0
0 0 0 0 0 0 0 0 0 0 0 0 0 0 0 0 0 0 0 0 0 0 0 0 0 0 0 0 0 0 0 0 0 0 0 0 0 0 0 0 0 0 0
0 0 0 0 0 0 0 0 0 0 0 0 0 0 0 0 0 0 0 0 0 0 0 0 0 0 0 0 0 0 0 0 0 0 0 0 0 0 0 0 0 0 0
0 0 0 0 0 0 0 0 0 0 0 0 0 0 0 0 0 0 0 0 0 0 0 0 0 0 0 0 0 0 0 0 0 0 0 0 0 0 0 0 0 0 0
0 0 0 0 0 0 0 0 0 0 0 0 0 0 0 0 0 0 -0 0 0 0 0 0 0 0 0 0 0 0 0 0 0 0 0 0 0 0 0 0 0 0 0
0 0 0 0 0 0 0 0 0 0 0 0 0 0 0 0 0 -0 -0 -0 0 0 0 0 0 0 0 0 0 0 0 0 0 0 0 0 0 0 0 0 0 0 0
0 0 0 0 0 0 0 0 0 0 0 0 0 0 0 0 0 -0 -0 -0 0 0 0 0 0 0 -0 -0 0 0 0 0 0 0 0 0 0 0 0 0 0 0 0
0 0 0 0 0 0 0 0 0 0 0 0 0 0 0 0 -0 -0 -0 -0 0 0 0 0 0 -0 -0 -0 -0 0 0 0 0 0 0 0 0 0 0 0 0 0 0
0 0 0 0 0 0 0 0 0 0 0 0 0 0 -0 -0 -0 -0 -0 -0 -0 0 0 0 0 -0 -0 -0 0 0 0 0 0 0 0 0 0 0 0 0 0 0 0
0 0 0 0 0 0 0 0 0 0 0 0 -0 -0 -0 -0 -0 0 0 -0 0 0 0 0 0 0 0 0 0 0 0 0 0 0 0 0 0 0 0 0 0 0 0
0 0 0 0 0 0 0 0 -0 -0 -0 -0 -0 -0 -0 0 0 0 0 0 0 0 0 0 0 0 0 0 0 0 0 0 0 0 0 0 0 0 0 0 0 0 0
0 0 0 0 0 0 0 0 0 0 0 0 0 0 0 0 0 0 0 0 0 0 0 0 0 0 0 0 0 0 0 0 0 0 0 0 0 0 0 0 0 0 0
0 0 0 0 0 0 0 0 0 0 0 0 0 0 0 0 0 0 0 0 0 0 0 0 0 0 0 0 0 0 0 0 0 0 0 0 0 0 0 0 0 0 0
0 0 0 0 0 0 0 0 0 0 0 0 0 0 0 0 0 0 0 0 0 0 0 0 0 0 0 0 0 0 0 0 0 0 0 0 0 0 0 0 0 0 0
0 0 0 0 0 0 0 0 0 0 0 0 0 0 0 0 0 0 0 0 0 0 0 0 0 0 0 0 0 0 0 0 0 0 0 0 0 0 0 0 0 0 0
0 0 0 0 0 0 0 0 0 0 0 0 -0 -0 -0 -0 0 0 0 0 0 0 0 0 0 0 0 0 0 0 0 0 0 0 0 0 0 0 0 0 0 0 0
0 0 0 0 0 0 0 0 0 0 0 -0 -0 -0 -0 -0 -0 0 0 0 0 0 0 0 0 0 0 0 0 0 0 0 0 0 0 0 0 0 0 0 0 0 0
0 0 0 0 0 0 0 0 0 0 0 -0 -0 -0 -0 -0 0 0 0 0 0 0 0 0 0 0 0 0 0 0 0 0 0 0 0 0 0 0 0 0 0 0 0
0 0 0 0 0 0 0 0 0 -0 0 0 0 0 -0 0 0 0 0 0 0 0 0 0 0 0 0 0 0 0 0 0 0 0 0 0 0 0 0 0 0 0 0
0 0 0 0 0 0 0 0 -0 0 0 0 0 0 -0 -0 -0 0 0 0 0 0 0 0 0 0 0 0 0 0 0 0 0 0 0 0 0 0 0 0 0 0 0
0 0 0 0 0 0 0 0 0 0 0 0 0 0 0 0 0 0 0 0 0 0 0 0 0 0 0 0 0 0 0 0 0 0 0 0 0 0 0 0 0 0 0
0 0 0 0 0 0 0 0 0 0 0 0 0 0 0 0 0 0 0 0 0 0 0 0 0 0 0 0 0 0 0 0 0 0 0 0 0 0 0 0 0 0 0
0 0 0 0 0 0 0 0 0 0 0 0 0 0 0 0 0 0 0 0 0 0 0 0 0 0 0 0 0 0 0 0 0 0 0 0 0 0 0 0 0 0 -0
Wind_Speed_500mb
30 28 29 29 29 28 26 25 24 24 25 28 31 35 38 41 45 47 48 48 49 49 47 48 48 47 50 51 52 58 61 62 74 101 90 94 85 87 89 88 82 84 91
32 34 36 36 34 31 27 23 24 25 28 33 36 39 40 42 44 46 48 48 50 51 52 53 53 52 52 52 52 54 55 54 62 85 96 94 91 80 82 79 84 86 88
41 42 43 41 39 34 30 29 29 32 37 39 38 38 37 36 36 39 44 47 52 54 57 59 60 60 62 61 60 61 59 60 57 65 95 88 89 81 81 79 82 85 87
50 50 49 46 41 37 37 37 38 38 40 38 35 34 35 36 38 40 44 49 54 57 60 62 63 62 63 63 62 61 61 64 63 69 84 92 89 83 79 78 82 79 87
59 58 55 49 46 46 44 44 43 41 41 39 39 37 37 37 40 45 49 54 60 65 68 67 65 63 63 60 61 61 60 64 68 72 81 88 91 85 77 79 84 86 89
68 65 61 56 56 53 50 50 47 47 44 44 41 43 44 46 50 55 59 65 69 75 79 78 74 72 69 67 62 59 58 62 69 71 79 86 94 84 82 77 77 82 97
76 71 69 65 63 61 57 55 56 53 53 51 49 49 52 57 61 65 67 72 80 84 87 88 87 81 77 76 75 77 76 69 69 71 83 86 89 80 78 78 69 74 88
81 78 73 73 71 67 64 63 61 61 62 58 56 57 61 64 68 71 78 85 91 92 93 92 92 90 85 81 82 86 86 84 82 80 84 89 84 80 73 74 77 87 96
63 71 76 77 72 69 67 65 64 66 66 64 67 69 72 77 80 85 91 97 100 104 102 100 97 97 90 82 84 89 93 95 90 91 92 91 90 85 80 80 86 82 94
54 58 67 74 75 72 69 67 67 67 70 71 75 79 85 90 92 95 101 105 111 111 112 110 106 100 94 85 82 87 99 98 97 98 99 100 98 96 84 77 70 75 72
40 45 53 63 65 65 65 64 62 62 67 76 81 88 95 99 102 105 109 108 107 112 115 116 109 102 96 92 92 98 105 104 103 102 107 109 103 95 83 75 63 61 69
26 30 37 43 47 51 52 52 57 63 71 79 88 100 105 106 107 110 107 101 97 100 111 114 112 107 108 106 105 106 104 100 105 106 108 114 107 102 92 77 64 60 67
18 22 26 31 36 42 48 55 61 68 77 85 94 104 113 113 113 109 102 95 90 89 98 106 110 113 114 115 111 104 95 94 97 102 109 116 106 101 83 75 71 70 75
19 23 27 33 40 47 54 61 68 74 80 86 93 102 110 112 109 103 100 96 94 97 103 111 108 102 98 101 96 92 88 85 85 92 98 103 93 83 82 73 75 71 71
25 28 33 38 45 51 56 63 69 73 76 83 87 91 98 105 100 86 79 87 84 80 85 99 109 98 95 87 85 82 78 75 78 81 87 90 86 77 76 67 70 69 73
34 36 40 45 50 55 61 67 67 72 74 76 78 81 87 88 86 77 75 76 74 73 85 98 105 93 93 91 87 85 79 76 78 79 84 86 85 79 77 79 75 72 73
38 41 42 45 49 55 59 66 79 75 71 76 80 83 85 90 81 77 76 77 71 69 80 92 94 92 94 92 90 87 90 83 80 81 86 88 88 86 80 78 75 74 73
37 39 41 42 44 48 53 59 65 77 89 89 82 84 86 85 82 77 74 78 86 77 80 86 88 88 87 88 88 86 88 88 85 86 88 87 83 83 82 79 74 75 69
30 33 36 38 42 45 49 54 61 70 79 89 96 93 90 88 85 80 75 77 86 88 86 88 88 91 93 92 90 87 85 86 86 84 82 81 85 83 85 80 80 79 72
24 28 33 37 39 43 49 56 62 70 78 85 92 96 98 90 89 83 83 82 83 86 87 89 89 90 91 91 92 90 90 89 84 81 77 84 87 83 82 81 80 80 77
25 26 30 33 40 46 51 56 61 67 74 82 87 90 71 76 89 89 84 80 81 86 91 92 93 93 93 92 91 90 89 90 87 84 83 78 85 81 80 80 78 80 73
26 29 32 38 42 46 49 53 59 66 71 76 81 84 85 86 88 89 88 87 85 84 82 85 93 95 95 95 95 95 95 92 87 85 78 79 63 67 76 78 78 77 74
29 30 34 37 41 46 50 55 60 64 69 74 79 84 86 88 88 89 89 87 85 83 81 80 84 90 88 86 83 86 94 97 92 76 67 73 73 78 72 74 77 74 73
26 30 33 37 40 45 50 55 58 62 67 73 76 80 84 88 89 88 86 85 82 80 76 74 74 76 75 72 72 72 74 76 77 83 83 75 77 62 64 71 73 73 75
28 32 36 40 43 46 49 53 57 61 64 68 73 77 81 83 86 88 87 85 83 81 79 76 73 71 68 66 65 62 59 56 53 53 52 56 75 69 68 69 71 72 77
28 31 35 38 41 45 48 51 53 56 61 64 68 71 75 78 81 84 85 84 82 77 74 70 67 63 62 61 57 50 40 29 25 23 38 52 59 63 65 65 70 74 83
Wind_Direction_500mb
235 237 229 227 228 233 241 248 258 268 277 281 283 284 283 285 287 291 294 296 296 297 297 297 297 297 295 294 290 284 281 281 282 293 292 295 296 297 299 297 295 299 302
231 229 228 231 235 240 243 251 260 270 275 274 273 276 280 284 289 294 296 299 299 300 300 300 301 301 298 298 296 292 287 280 278 283 294 293 294 297 296 298 297 294 295
228 230 231 233 232 232 235 243 250 254 257 261 266 272 279 287 294 300 304 305 304 304 304 302 302 302 300 299 297 295 294 291 283 278 291 294 295 296 297 298 296 296 296
234 236 236 234 234 234 237 241 243 246 251 255 262 271 281 291 300 307 311 311 310 308 306 306 305 304 302 301 299 297 296 291 288 283 284 291 292 296 296 300 299 296 297
239 239 240 237 235 236 238 240 239 242 244 250 259 269 281 292 302 310 313 314 315 313 311 309 308 306 303 305 304 303 296 293 291 291 292 295 296 299 300 301 299 302 299
243 246 245 241 241 240 237 238 239 240 244 251 260 268 277 288 299 307 314 316 315 314 313 312 311 307 307 305 304 300 294 291 291 290 292 291 297 299 300 297 295 295 297
247 248 246 242 241 239 236 237 238 240 246 254 263 275 285 292 298 301 309 313 314 314 313 312 310 308 307 306 305 300 297 293 289 289 289 289 295 298 297 297 293 291 291
253 251 248 243 241 238 237 238 239 244 251 260 271 282 290 297 301 302 307 310 311 311 311 310 307 306 305 304 300 296 296 294 292 291 289 291 290 291 289 290 290 291 293
253 251 246 240 238 238 238 240 244 251 258 267 276 284 291 296 302 304 305 307 308 308 308 306 304 304 305 302 298 296 294 293 293 293 291 291 291 291 289 289 286 292 291
244 241 238 236 236 236 238 243 249 258 267 275 280 287 293 298 302 303 305 305 306 306 305 303 302 301 301 301 298 296 293 295 297 294 291 290 289 287 284 278 284 282 283
234 232 228 228 232 237 242 250 260 269 277 281 285 290 293 297 301 302 303 305 305 304 302 301 301 301 299 299 298 295 294 297 295 292 291 291 291 291 291 291 289 277 278
229 230 232 235 243 251 261 267 274 281 284 288 292 292 295 299 301 302 303 305 306 303 300 299 299 300 299 298 296 294 293 292 290 289 288 289 289 290 291 292 289 282 278
236 236 240 248 257 267 274 281 287 291 294 296 296 295 296 298 298 300 303 304 301 297 295 295 295 295 293 291 290 292 291 287 285 285 285 286 285 289 287 286 282 275 278
272 278 280 281 282 286 290 294 296 297 299 300 299 299 298 300 302 305 305 302 299 297 296 294 294 292 288 286 285 284 284 283 280 279 280 284 284 281 281 281 284 284 285
293 296 296 295 295 296 298 301 302 304 306 306 305 304 305 305 307 306 302 298 298 297 295 291 291 291 289 285 282 280 278 275 271 271 271 273 273 274 275 275 278 284 283
316 314 314 312 310 310 308 304 307 311 314 315 315 313 309 306 306 303 300 298 296 293 288 284 283 283 283 284 282 281 278 275 274 275 272 270 270 271 273 278 274 278 278
324 321 321 323 324 324 323 322 319 316 318 320 322 319 316 314 311 305 302 300 297 294 282 283 283 283 283 282 280 279 279 277 276 271 271 270 271 270 271 268 269 272 275
333 333 336 336 334 333 332 331 330 329 329 329 327 324 323 320 315 310 307 305 299 297 292 288 285 283 281 280 280 280 280 280 276 273 273 272 267 268 265 261 262 266 270
337 337 338 340 341 340 338 336 335 334 334 333 332 333 331 325 319 316 316 310 309 307 304 299 296 294 292 290 287 284 282 281 279 277 274 268 267 264 260 260 260 263 260
342 341 342 342 343 343 344 343 341 341 340 340 339 338 335 332 324 313 308 305 300 300 300 296 295 293 289 287 286 284 282 281 281 274 274 271 270 263 257 261 256 255 256
343 345 345 347 349 348 348 347 346 345 344 344 344 342 329 317 313 315 311 305 301 299 297 293 290 288 288 288 288 286 281 279 278 275 277 264 264 256 258 264 251 249 240
340 345 349 351 350 350 350 350 349 348 346 345 345 345 344 337 332 325 318 311 305 301 298 295 292 290 289 287 285 283 282 280 281 279 274 269 264 258 267 253 244 236 229
336 344 350 348 346 348 350 352 352 351 349 348 348 347 346 343 339 334 329 324 321 317 313 309 302 296 293 290 284 277 274 273 277 276 268 266 273 262 256 248 237 226 214
332 341 341 342 345 348 350 351 352 351 351 350 351 350 348 346 344 343 339 335 332 329 326 321 314 307 304 300 296 290 285 281 275 267 261 263 257 253 253 238 225 215 203
333 336 338 340 343 345 347 350 350 350 350 350 350 351 352 351 349 348 346 342 338 335 334 330 322 318 315 311 307 302 296 291 285 270 255 252 256 254 235 222 210 199 192
322 329 334 336 339 341 343 345 347 348 348 349 349 352 352 353 352 351 349 348 343 340 336 332 330 327 322 320 318 316 309 295 269 247 253 251 240 220 212 206 198 189 183
Wind_Speed_850mb
30 28 29 29 29 28 26 25 24 24 25 28 31 35 38 41 45 47 48 48 49 49 47 48 48 47 50 51 52 58 61 62 74 101 90 94 85 87 89 88 82 84 91
32 34 36 36 34 31 27 23 24 25 28 33 36 39 40 42 44 46 48 48 50 51 52 53 53 52 52 52 52 54 55 54 62 85 96 94 91 80 82 79 84 86 88
41 42 43 41 39 34 30 29 29 32 37 39 38 38 37 36 36 39 44 47 52 54 57 59 60 60 62 61 60 61 59 60 57 65 95 88 89 81 81 79 82 85 87
50 50 49 46 41 37 37 37 38 38 40 38 35 34 35 36 38 40 44 49 54 57 60 62 63 62 63 63 62 61 61 64 63 69 84 92 89 83 79 78 82 79 87
59 58 55 49 46 46 44 44 43 41 41 39 39 37 37 37 40 45 49 54 60 65 68 67 65 63 63 60 61 61 60 64 68 72 81 88 91 85 77 79 84 86 89
68 65 61 56 56 53 50 50 47 47 44 44 41 43 44 46 50 55 59 65 69 75 79 78 74 72 69 67 62 59 58 62 69 71 79 86 94 84 82 77 77 82 97
76 71 69 65 63 61 57 55 56 53 53 51 49 49 52 57 61 65 67 72 80 84 87 88 87 81 77 76 75 77 76 69 69 71 83 86 89 80 78 78 69 74 88
81 78 73 73 71 67 64 63 61 61 62 58 56 57 61 64 68 71 78 85 91 92 93 92 92 90 85 81 82 86 86 84 82 80 84 89 84 80 73 74 77 87 96
63 71 76 77 72 69 67 65 64 66 66 64 67 69 72 77 80 85 91 97 100 104 102 100 97 97 90 82 84 89 93 95 90 91 92 91 90 85 80 80 86 82 94
54 58 67 74 75 72 69 67 67 67 70 71 75 79 85 90 92 95 101 105 111 111 112 110 106 100 94 85 82 87 99 98 97 98 99 100 98 96 84 77 70 75 72
40 45 53 63 65 65 65 64 62 62 67 76 81 88 95 99 102 105 109 108 107 112 115 116 109 102 96 92 92 98 105 104 103 102 107 109 103 95 83 75 63 61 69
26 30 37 43 47 51 52 52 57 63 71 79 88 100 105 106 107 110 107 101 97 100 111 114 112 107 108 106 105 106 104 100 105 106 108 114 107 102 92 77 64 60 67
18 22 26 31 36 42 48 55 61 68 77 85 94 104 113 113 113 109 102 95 90 89 98 106 110 113 114 115 111 104 95 94 97 102 109 116 106 101 83 75 71 70 75
19 23 27 33 40 47 54 61 68 74 80 86 93 102 110 112 109 103 100 96 94 97 103 111 108 102 98 101 96 92 88 85 85 92 98 103 93 83 82 73 75 71 71
25 28 33 38 45 51 56 63 69 73 76 83 87 91 98 105 100 86 79 87 84 80 85 99 109 98 95 87 85 82 78 75 78 81 87 90 86 77 76 67 70 69 73
34 36 40 45 50 55 61 67 67 72 74 76 78 81 87 88 86 77 75 76 74 73 85 98 105 93 93 91 87 85 79 76 78 79 84 86 85 79 77 79 75 72 73
38 41 42 45 49 55 59 66 79 75 71 76 80 83 85 90 81 77 76 77 71 69 80 92 94 92 94 92 90 87 90 83 80 81 86 88 88 86 80 78 75 74 73
37 39 41 42 44 48 53 59 65 77 89 89 82 84 86 85 82 77 74 78 86 77 80 86 88 88 87 88 88 86 88 88 85 86 88 87 83 83 82 79 74 75 69
30 33 36 38 42 45 49 54 61 70 79 89 96 93 90 88 85 80 75 77 86 88 86 88 88 91 93 92 90 87 85 86 86 84 82 81 85 83 85 80 80 79 72
24 28 33 37 39 43 49 56 62 70 78 85 92 96 98 90 89 83 83 82 83 86 87 89 89 90 91 91 92 90 90 89 84 81 77 84 87 83 82 81 80 80 77
25 26 30 33 40 46 51 56 61 67 74 82 87 90 71 76 89 89 84 80 81 86 91 92 93 93 93 92 91 90 89 90 87 84 83 78 85 81 80 80 78 80 73
26 29 32 38 42 46 49 53 59 66 71 76 81 84 85 86 88 89 88 87 85 84 82 85 93 95 95 95 95 95 95 92 87 85 78 79 63 67 76 78 78 77 74
29 30 34 37 41 46 50 55 60 64 69 74 79 84 86 88 88 89 89 87 85 83 81 80 84 90 88 86 83 86 94 97 92 76 67 73 73 78 72 74 77 74 73
26 30 33 37 40 45 50 55 58 62 67 73 76 80 84 88 89 88 86 85 82 80 76 74 74 76 75 72 72 72 74 76 77 83 83 75 77 62 64 71 73 73 75
28 32 36 40 43 46 49 53 57 61 64 68 73 77 81 83 86 88 87 85 83 81 79 76 73 71 68 66 65 62 59 56 53 53 52 56 75 69 68 69 71 72 77
28 31 35 38 41 45 48 51 53 56 61 64 68 71 75 78 81 84 85 84 82 77 74 70 67 63 62 61 57 50 40 29 25 23 38 52 59 63 65 65 70 74 83
Wind_Direction_850mb
235 237 229 227 228 233 241 248 258 268 277 281 283 284 283 285 287 291 294 296 296 297 297 297 297 297 295 294 290 284 281 281 282 293 292 295 296 297 299 297 295 299 302
231 229 228 231 235 240 243 251 260 270 275 274 273 276 280 284 289 294 296 299 299 300 300 300 301 301 298 298 296 292 287 280 278 283 294 293 294 297 296 298 297 294 295
228 230 231 233 232 232 235 243 250 254 257 261 266 272 279 287 294 300 304 305 304 304 304 302 302 302 300 299 297 295 294 291 283 278 291 294 295 296 297 298 296 296 296
234 236 236 234 234 234 237 241 243 246 251 255 262 271 281 291 300 307 311 311 310 308 306 306 305 304 302 301 299 297 296 291 288 283 284 291 292 296 296 300 299 296 297
239 239 240 237 235 236 238 240 239 242 244 250 259 269 281 292 302 310 313 314 315 313 311 309 308 306 303 305 304 303 296 293 291 291 292 295 296 299 300 301 299 302 299
243 246 245 241 241 240 237 238 239 240 244 251 260 268 277 288 299 307 314 316 315 314 313 312 311 307 307 305 304 300 294 291 291 290 292 291 297 299 300 297 295 295 297
247 248 246 242 241 239 236 237 238 240 246 254 263 275 285 292 298 301 309 313 314 314 313 312 310 308 307 306 305 300 297 293 289 289 289 289 295 298 297 297 293 291 291
253 251 248 243 241 238 237 238 239 244 251 260 271 282 290 297 301 302 307 310 311 311 311 310 307 306 305 304 300 296 296 294 292 291 289 291 290 291 289 290 290 291 293
253 251 246 240 238 238 238 240 244 251 258 267 276 284 291 296 302 304 305 307 308 308 308 306 304 304 305 302 298 296 294 293 293 293 291 291 291 291 289 289 286 292 291
244 241 238 236 236 236 238 243 249 258 267 275 280 287 293 298 302 303 305 305 306 306 305 303 302 301 301 301 298 296 293 295 297 294 291 290 289 287 284 278 284 282 283
234 232 228 228 232 237 242 250 260 269 277 281 285 290 293 297 301 302 303 305 305 304 302 301 301 301 299 299 298 295 294 297 295 292 291 291 291 291 291 291 289 277 278
229 230 232 235 243 251 261 267 274 281 284 288 292 292 295 299 301 302 303 305 306 303 300 299 299 300 299 298 296 294 293 292 290 289 288 289 289 290 291 292 289 282 278
236 236 240 248 257 267 274 281 287 291 294 296 296 295 296 298 298 300 303 304 301 297 295 295 295 295 293 291 290 292 291 287 285 285 285 286 285 289 287 286 282 275 278
272 278 280 281 282 286 290 294 296 297 299 300 299 299 298 300 302 305 305 302 299 297 296 294 294 292 288 286 285 284 284 283 280 279 280 284 284 281 281 281 284 284 285
293 296 296 295 295 296 298 301 302 304 306 306 305 304 305 305 307 306 302 298 298 297 295 291 291 291 289 285 282 280 278 275 271 271 271 273 273 274 275 275 278 284 283
316 314 314 312 310 310 308 304 307 311 314 315 315 313 309 306 306 303 300 298 296 293 288 284 283 283 283 284 282 281 278 275 274 275 272 270 270 271 273 278 274 278 278
324 321 321 323 324 324 323 322 319 316 318 320 322 319 316 314 311 305 302 300 297 294 282 283 283 283 283 282 280 279 279 277 276 271 271 270 271 270 271 268 269 272 275
333 333 336 336 334 333 332 331 330 329 329 329 327 324 323 320 315 310 307 305 299 297 292 288 285 283 281 280 280 280 280 280 276 273 273 272 267 268 265 261 262 266 270
337 337 338 340 341 340 338 336 335 334 334 333 332 333 331 325 319 316 316 310 309 307 304 299 296 294 292 290 287 284 282 281 279 277 274 268 267 264 260 260 260 263 260
342 341 342 342 343 343 344 343 341 341 340 340 339 338 335 332 324 313 308 305 300 300 300 296 295 293 289 287 286 284 282 281 281 274 274 271 270 263 257 261 256 255 256
343 345 345 347 349 348 348 347 346 345 344 344 344 342 329 317 313 315 311 305 301 299 297 293 290 288 288 288 288 286 281 279 278 275 277 264 264 256 258 264 251 249 240
340 345 349 351 350 350 350 350 349 348 346 345 345 345 344 337 332 325 318 311 305 301 298 295 292 290 289 287 285 283 282 280 281 279 274 269 264 258 267 253 244 236 229
336 344 350 348 346 348 350 352 352 351 349 348 348 347 346 343 339 334 329 324 321 317 313 309 302 296 293 290 284 277 274 273 277 276 268 266 273 262 256 248 237 226 214
332 341 341 342 345 348 350 351 352 351 351 350 351 350 348 346 344 343 339 335 332 329 326 321 314 307 304 300 296 290 285 281 275 267 261 263 257 253 253 238 225 215 203
333 336 338 340 343 345 347 350 350 350 350 350 350 351 352 351 349 348 346 342 338 335 334 330 322 318 315 311 307 302 296 291 285 270 255 252 256 254 235 222 210 199 192
322 329 334 336 339 341 343 345 347 348 348 349 349 352 352 353 352 351 349 348 343 340 336 332 330 327 322 320 318 316 309 295 269 247 253 251 240 220 212 206 198 189 183